Regional Weather Roundup
Issued by NWS Upton, NY

Current Version | Previous Version | Graphics & Text | Print | Product List | Glossary Off
Versions: 1 2 3 4 5 6 7 8 9 10 11 12 13 14 15 16 17 18 19 20 21 22 23 24 25 26 27

000
ASUS41 KOKX 160008
RWROKX

REGIONAL WEATHER ROUNDUP
NATIONAL WEATHER SERVICE NEW YORK NY
800 PM EDT TUE AUG 15 2017

NOTE: "FAIR" INDICATES FEW OR NO CLOUDS BELOW 12,000 FEET WITH NO
SIGNIFICANT WEATHER AND/OR OBSTRUCTIONS TO VISIBILITY.

NYZ071-072-176-178-NJZ106-104-160100-
NEW YORK CITY METRO AREA

CITY           SKY/WX    TMP DP  RH WIND       PRES   REMARKS
Central Park   CLOUDY    73  71  93 CALM      29.92F FOG
Bronx Bot Gard   N/A     72  70  94 S3        29.90F
LaGuardia APRT CLOUDY    73  71  93 S8        29.89S
Kennedy INTL   CLOUDY    73  72  96 S6        29.91S
Breezy Point     N/A     72 N/A N/A E2          N/A
Newark/Liberty MOCLDY    73  70  90 SE5       29.90S
Teterboro      CLOUDY    74  70  87 S3        29.89S
$$

NYZ177-179-078>081-160100-
LONG ISLAND NEW YORK

CITY           SKY/WX    TMP DP  RH WIND       PRES   REMARKS
Jones Beach      N/A     72 N/A N/A SE3         N/A
Matinecock PT    N/A     72 N/A N/A SE1         N/A
Farmingdale    CLOUDY    72  69  90 S7        29.91S
MacArthur/ISP  CLOUDY    72  69  90 SE7       29.91S
Shirley        CLOUDY    71  68  90 SE3       29.92S
Mt Sinai Harb    N/A    N/A N/A N/A S6          N/A
Westhampton    CLOUDY    70  67  90 CALM      29.94R
East Hampton   CLOUDY    69  67  90 CALM      29.92R
Montauk          N/A     71  68  90 CALM      29.93F
$$

NYZ052-065-067-160100-
HUDSON VALLEY

CITY           SKY/WX    TMP DP  RH WIND       PRES   REMARKS
White Plains   MOCLDY    72  69  90 S7        29.91S
Larchmont Harb   N/A     72 N/A N/A SE7         N/A
Croton On Huds   N/A     73 N/A N/A SE1         N/A
Newburgh       PTCLDY    73  70  88 CALM      29.92R
Montgomery     CLEAR     72  68  87 CALM      29.90R
Poughkeepsie   CLOUDY    74  67  78 S3        29.88R
Albany         CLOUDY    74  67  78 S8        29.87R
$$

NJZ001-105-106-008-010-013-015-019>022-104-160100-
NEW JERSEY

CITY           SKY/WX    TMP DP  RH WIND       PRES   REMARKS
Newark/Liberty MOCLDY    73  70  90 SE5       29.90S
Teterboro      CLOUDY    74  70  87 S3        29.89S
Caldwell       PTCLDY    74  71  91 CALM      29.90S
Somerville     FOG       72  72 100 CALM      29.88S VSB 1/2
Linden         FAIR      73  70  89 CALM      29.90S
Perth Amboy      N/A     72 N/A N/A E6          N/A
Sussex         MOCLDY    72  70  93 CALM      29.91R
Andover          N/A     71  68  90 CALM      29.92R
Trenton        MOCLDY    74  72  93 E3        29.90S
Millville      CLOUDY    77  76  96 CALM      29.89S
Atlantic City  CLOUDY    75  74  96 CALM      29.89S
Wrightstown    LGT RAIN  75  73  95 CALM      29.87S
Toms River     PTCLDY    75  74  96 SE3       29.90F
Belmar         CLOUDY    73  72  96 E6        29.91F
$$

PAZ047>061-062-071-160100-
EASTERN PENNSYLVANIA

CITY           SKY/WX    TMP DP  RH WIND       PRES   REMARKS
Philadelphia   CLOUDY    77  72  84 N3        29.90S
Allentown      PTCLDY    74  68  81 S3        29.90R
Scranton       CLEAR     75  64  68 S3        29.91R
$$

CTZ002-004>006-009-010-012-RIZ004-006-007-MAZ004-011-015-160100-
SOUTHERN NEW ENGLAND
 IN CT

CITY           SKY/WX    TMP DP  RH WIND       PRES   REMARKS
Bradley INTL   CLOUDY    73  67  81 S8        29.90R
Hartford       MOCLDY    73  67  81 S14       29.90S
Danbury        MOCLDY    72  69  90 S3        29.92S
Wtrbury/Oxford CLOUDY    70  68  93 S6        29.93S
Norwalk Harbor   N/A     70 N/A N/A SE8         N/A
Bridgeport     CLOUDY    72  69  90 S6        29.91S
Meriden        CLOUDY    71  67  87 S8        29.91S
New Haven      CLOUDY    72  68  87 S9        29.91S
Chester        NOT AVBL
Groton         CLOUDY    70  67  90 CALM      29.92S
Wilimantic     CLOUDY    71  67  87 S6        29.92S

 IN RI

CITY           SKY/WX    TMP DP  RH WIND       PRES   REMARKS
Providence     CLOUDY    70  67  90 SW7       29.93R
Block Island   CLOUDY    69  67  93 SW5       29.93S
Westerly       CLOUDY    71  67  87 S5        29.93S
 IN MA

CITY           SKY/WX    TMP DP  RH WIND       PRES   REMARKS
Boston         CLOUDY    71  63  75 S15       29.88S
Worcester      CLOUDY    67  62  84 S8        29.92S
Westfield      PTCLDY    72  68  87 S7        29.89S
Provincetown   CLOUDY    69  65  86 SW14      29.92S
Nantucket      LGT RAIN  65  65 100 SE5       29.93S
$$

ANZ330-335-338-340-345-350-353-355-160100-
COASTAL MARINE OBSERVATIONS


STATION/POSITION TIME  SKY/WX   TEMP    WIND        PRES    VSBY  WAVE
                                AIR SEA DIR/SP/G                  HT/PER
                 (UTC)          (F)     (DEG/KT/KT) (MB)    (MI)  (FT/S)
NY HARB ENTRANCE 2250            73 75  120/  6/  8 1012.2          5/11
GREAT SOUTH BAY  2300            72 77  160/  8/ 10   N/A
23 SSW MONTAUK P 2350            70 70              1013.3          4/ 9
15 E BARNEGAT LI 2330               76                N/A           5/11
HUDSON CANYON    2350            73 74   60/  8/ 10 1011.7          5/13
KINGS POINT      2330            73 73  190/  6/  7 1012.3
EXECUTION ROCKS  NOT AVBL
WESTERN LI SOUND NOT AVBL
CENTRAL LI SOUND NOT AVBL
EASTERN LI SOUND NOT AVBL
ROBBINS REEF     2330                   160/  7/  7 1013.0
$$


>>>>>>>>>>>>>>>>>>>>>>>>>>>> KEY <<<<<<<<<<<<<<<<<<<<<<<<<<<
>                                                          <
>     SKY/WX - Sky Condition/Present Weather               <
>     TMP    - Temperature in Fahrenheit                   <
>     DP     - Dew Point in Fahrenheit                     <
>     RH     - Relative Humidity in Percent                <
>     WIND   - Direction (from) and Speed in MPH           <
>     PRES   - Mean Sea Level Pressure (inches of Hg)      <
>     WCI    - Wind Chill Index                            <
>     VSB    - VISIBILITY IN MILES                         <
>     HX     - HEAT INDEX                                  <
>     TC     - TEMPERATURE IN CELSIUS                      <
>     VRB    - VARIABLE WIND DIRECTION                     <
>                                                          <
>>>>>>>>>>>>>>>>>>>>>>>>>>>> KEY <<<<<<<<<<<<<<<<<<<<<<<<<<<




USA.gov is the U.S. government's official web portal to all federal, state and local government web resources and services.